User: anonymous   Login
Location: *
(51.5000°N, 0.1100°W)
Time: 03:56:13
(UTC+00:00)
Language:

Helios 1A Rocket - Orbit

View from above orbital plane
View from above orbital plane
View from above satellite
View from above satellite

Ground track
Ground track

The orbit data is extracted from the following two-line orbital elements,

1 23608U 95033D   24194.57926664  .00012328  00000-0  72053-3 0  9990
2 23608  98.2548 320.3982 0015206 332.4853  27.5568 15.11958767574353
Epoch (UTC): 12 July 2024 13:54:08
Eccentricity: 0.0015206
inclination: 98.2548°
perigee height: 520 km
apogee height: 541 km
right ascension of ascending node: 320.3982°
argument of perigee: 332.4853°
revolutions per day: 15.11958767
mean anomaly at epoch: 27.5568°
orbit number at epoch: 57435

The dashed part of the orbit path shows where the satellite is in the earth's shadow,  

DLR